CZ-3B DEB, 40845

Orbit data source: Space-Track

CZ-3B DEB, 40845 is space debris in HEO originally from a launch on Mon, 19 Dec 2011 UTC launched from the Xichang Space Center, China (XSC). Debris objects in space refer to the collection of defunct objects orbiting the Earth. Examples of debris include non-operational satellites, rocket bodies, and fragments generated from explosions, collisions, or faulty payload assembly.

Loading next visibility...
Identifier
40845, 2011-077AA
Orbit
HEO
Country
Flag of CNCN / PRC
Related business
Manufacturer
CALT
Mission
Spacecraft
Bus & Motor
Unknown
Mass
Unknown
Launch date (UTC)
2011-12-19 (14 years ago)
Launch vehicle
Unknown
Launch site
Xichang Space Center, China (XSC)
Object type
Payload
Rocket body
Debris
Shape & HBR
Unknown shape, 0.2 m
Radar Cross Section
Medium (>0.1 m² and <1 m²)

Expand to show TLE details & history
Last TLE update: 1 day ago

TLE from 1 day ago
0 CZ-3B DEB
1 40845U 11077AA  25293.32192758  .00010195  00000-0  10943-1 0  9999
2 40845  21.5463 219.8414 7459562  45.2836 355.0523  2.02899152 87364
Epoch: 2025-10-20T07:43Z
TLE epoch observation values (Epoch: 2025-10-20T07:43:34.542Z)
Latitude
0.00011°
Longitude
74.99203°
Altitude
1,297.223 km
Speed
9.42 km/s
True Right ascension
14h 39m 38s
True Declination
0° 00' 00"
Sunlit
Object was in daylight at epoch
Visualization orbit readout
Latitude
Unknown
Longitude
Unknown
Altitude
Unknown
Speed
Unknown
Apparent Right ascension
Unknown
Apparent Declination
Unknown
Sunlit
N/A
Visualization observer readout
Local Sidereal Time
14:04:26
Azimuth
Unknown
Elevation
Unknown
Doppler factor
Unknown
Orbital elements
Apogee altitude
39,646.424 km
Perigee altitude
318.626 km
Semi-major axis
26,360.662 km
Eccentricity
0.74596
Inclination
21.5463°
RAAN
219.8414°
Arg. of periapsis
45.2836°
True anomaly
313.68714°
Mean anomaly
355.0523°
Eccentric anomaly
341.46806°
Mean motion
0.50712 °/min
Orbital period
709.89 mins
BSTAR
0.010943
Loading maneuver chart data...
Computing Atmospheric mass density...
Loading historical data...
Loading historical data...
Loading historical data...
Loading historical data...
Loading historical data...
Loading historical data...
Loading historical data...

Documentation

Showing up to 5 results
|